Cadillac, MI

12:06 PM EST on February 27, 2017 (GMT -0500)
Wexford County

Weather History for KCAD - October, 2012

Change the Weather History Date:

Tuesday, October 2, 2012

  Actual Average Record
Temperature  
Mean Temperature 54 °F -  
Max Temperature 71 °F 62 °F 84 °F (1971)
Min Temperature 36 °F 38 °F 24 °F (2003)
Degree Days  
Heating Degree Days 12    
Growing Degree Days 4 (Base 50)    
Moisture  
Dew Point 40 °F    
Average Humidity 67    
Maximum Humidity 92    
Minimum Humidity 24    
Precipitation  
Precipitation 0.00 in - - ()
Sea Level Pressure  
Sea Level Pressure 29.90 in    
Wind  
Wind Speed 1 mph (NE)    
Max Wind Speed 7 mph    
Max Gust Speed -    
Visibility 9 miles    
Events Fog    
Averages and records for this station are not official NWS values.
T = Trace of Precipitation, MM = Missing Value Source: NWS Daily Summary

Daily Weather History Graph

Daily Weather History Graph

Search for Another Location

Airport or City:

Trip Planner

Search our weather history database for the weather conditions in past years. The results will help you decide how hot, cold, wet, or windy it might be!

Date:

Astronomy

Oct. 02, 2012 Rise Set
Actual Time 7:41 AM EDT 7:19 PM EDT
Civil Twilight 7:12 AM EDT 7:48 PM EDT
Nautical Twilight 6:38 AM EDT 8:22 PM EDT
Astronomical Twilight 6:04 AM EDT 8:56 PM EDT
Moon 8:24 PM EDT (10/2) 10:15 AM EDT (10/2)
Length of Visible Light 12h 36m
Length of Day
11h 38m
Waning Gibbous, 94% of the Moon is Illuminated
Oct 2
Waning Gibbous
Oct 8
Last Quarter
Oct 15
New
Oct 21
First Quarter
Oct 29
Full

Hourly Weather History & Observations

Time (EDT) Temp. Windchill Dew Point Humidity Pressure Visibility Wind Dir Wind Speed Gust Speed Precip Events Conditions
12:15 AM 41.7 °F - 39.0 °F 90% 29.87 in 10.0 mi Calm Calm - N/A   Clear
12:34 AM 42.4 °F - 39.6 °F 90% 29.87 in 10.0 mi Calm Calm - N/A   Clear
12:54 AM 42.3 °F - 39.4 °F 90% 29.87 in 10.0 mi Calm Calm - N/A   Clear
1:15 AM 41.5 °F - 38.7 °F 89% 29.87 in 10.0 mi Calm Calm - N/A   Clear
1:34 AM 41.2 °F - 38.5 °F 90% 29.86 in 10.0 mi Calm Calm - N/A   Clear
1:54 AM 41.2 °F - 38.7 °F 91% 29.86 in 10.0 mi Calm Calm - N/A   Clear
2:34 AM 41.9 °F 40.0 °F 39.4 °F 91% 29.86 in 10.0 mi NNW 3.5 mph - N/A   Clear
2:54 AM 42.4 °F - 39.7 °F 90% 29.86 in 10.0 mi Calm Calm - N/A   Clear
3:15 AM 42.4 °F - 39.6 °F 90% 29.86 in 10.0 mi Calm Calm - N/A   Clear
3:34 AM 42.4 °F - 39.6 °F 90% 29.86 in 10.0 mi Calm Calm - N/A   Clear
3:54 AM 42.4 °F - 39.4 °F 89% 29.86 in 10.0 mi Calm Calm - N/A   Clear
4:14 AM 42.4 °F - 39.6 °F 90% 29.86 in 10.0 mi Calm Calm - N/A   Clear
4:34 AM 41.2 °F 39.2 °F 38.5 °F 90% 29.86 in 10.0 mi NW 3.5 mph - N/A   Clear
4:54 AM 42.4 °F - 39.7 °F 90% 29.87 in 10.0 mi Calm Calm - N/A   Clear
5:14 AM 42.4 °F - 39.6 °F 90% 29.87 in 10.0 mi Calm Calm - N/A   Clear
5:34 AM 42.4 °F - 39.4 °F 89% 29.87 in 10.0 mi Calm Calm - N/A   Clear
5:54 AM 41.2 °F - 38.3 °F 89% 29.87 in 10.0 mi Calm Calm - N/A   Clear
6:34 AM 38.7 °F 35.2 °F 36.1 °F 91% 29.89 in 5.0 mi NNW 4.6 mph - N/A   Clear
6:54 AM 38.7 °F - 36.3 °F 91% 29.89 in 10.0 mi Calm Calm - N/A   Clear
7:14 AM 38.7 °F - 36.5 °F 92% 29.90 in 10.0 mi Calm Calm - N/A   Clear
7:34 AM 37.4 °F - 35.1 °F 91% 29.90 in 7.0 mi Calm Calm - N/A   Clear
8:14 AM 36.1 °F 33.5 °F 33.8 °F 91% 29.91 in 10.0 mi NW 3.5 mph - N/A   Clear
8:34 AM 38.7 °F - 36.5 °F 92% 29.92 in 10.0 mi Calm Calm - N/A   Clear
8:55 AM 42.4 °F - 40.1 °F 91% 29.92 in 10.0 mi Calm Calm - N/A   Clear
9:14 AM 44.6 °F 43.1 °F 41.9 °F 90% 29.92 in 10.0 mi NW 3.5 mph - N/A   Clear
9:34 AM 51.4 °F - 46.4 °F 83% 29.91 in 10.0 mi Calm Calm - N/A   Clear
9:55 AM 54.9 °F - 44.6 °F 68% 29.91 in 10.0 mi Calm Calm - N/A   Clear
10:14 AM 58.8 °F - 44.6 °F 59% 29.91 in 10.0 mi NNE 3.5 mph - N/A   Clear
10:34 AM 59.0 °F - 43.7 °F 57% 29.91 in 10.0 mi NE 3.5 mph - N/A   Clear
10:55 AM 60.8 °F - 45.0 °F 56% 29.92 in 10.0 mi East 5.8 mph - N/A   Clear
11:14 AM 61.7 °F - 41.5 °F 48% 29.92 in 10.0 mi East 5.8 mph - N/A   Clear
11:34 AM 62.1 °F - 40.1 °F 44% 29.92 in 10.0 mi ESE 4.6 mph - N/A   Clear
11:55 AM 62.8 °F - 40.5 °F 44% 29.92 in 10.0 mi ENE 4.6 mph - N/A   Clear
12:14 PM 64.0 °F - 39.9 °F 41% 29.92 in 10.0 mi East 6.9 mph - N/A   Clear
12:34 PM 64.8 °F - 35.8 °F 34% 29.92 in 10.0 mi ESE 3.5 mph - N/A   Clear
12:54 PM 64.8 °F - 34.2 °F 32% 29.92 in 10.0 mi Calm Calm - N/A   Clear
1:14 PM 66.6 °F - 31.5 °F 27% 29.92 in 10.0 mi NNW 3.5 mph - N/A   Clear
1:35 PM 66.6 °F - 31.5 °F 27% 29.92 in 10.0 mi Calm Calm - N/A   Clear
1:54 PM 66.7 °F - 31.1 °F 26% 29.91 in 10.0 mi ESE 3.5 mph - N/A   Clear
2:14 PM 69.1 °F - 33.4 °F 27% 29.91 in 10.0 mi NNE 4.6 mph - N/A   Clear
2:35 PM 69.1 °F - 32.5 °F 26% 29.90 in 10.0 mi Calm Calm - N/A   Clear
2:54 PM 70.2 °F - 35.1 °F 28% 29.90 in 10.0 mi ESE 4.6 mph - N/A   Clear
3:14 PM 69.3 °F - 34.7 °F 28% 29.90 in 10.0 mi ESE 3.5 mph - N/A   Clear
3:34 PM 71.4 °F - 32.7 °F 24% 29.90 in 10.0 mi ENE 3.5 mph - N/A   Clear
3:54 PM 71.6 °F - 33.3 °F 24% 29.89 in 10.0 mi East 5.8 mph - N/A   Clear
4:14 PM 70.7 °F - 34.3 °F 26% 29.89 in 10.0 mi NE 5.8 mph - N/A   Clear
4:34 PM 70.0 °F - 34.3 °F 27% 29.89 in 10.0 mi Calm Calm - N/A   Clear
4:54 PM 71.6 °F - 36.1 °F 27% 29.89 in 10.0 mi NE 6.9 mph - N/A   Clear
5:14 PM 71.6 °F - 36.1 °F 27% 29.89 in 10.0 mi NE 5.8 mph - N/A   Clear
5:34 PM 69.1 °F - 35.2 °F 29% 29.89 in 10.0 mi ENE 5.8 mph - N/A   Clear
6:14 PM 69.1 °F - 36.9 °F 31% 29.89 in 10.0 mi East 4.6 mph - N/A   Clear
6:34 PM 66.2 °F - 38.3 °F 36% 29.90 in 10.0 mi East 4.6 mph - N/A   Clear
7:14 PM 61.7 °F - 49.3 °F 64% 29.91 in 10.0 mi North 4.6 mph - N/A   Clear
7:34 PM 59.4 °F - 49.6 °F 70% 29.91 in 10.0 mi North 3.5 mph - N/A   Clear
7:54 PM 57.7 °F - 50.0 °F 75% 29.92 in 10.0 mi Calm Calm - N/A   Clear
8:14 PM 56.5 °F - 50.2 °F 79% 29.92 in 10.0 mi North 3.5 mph - N/A   Clear
8:34 PM 54.1 °F - 49.1 °F 83% 29.93 in 10.0 mi Calm Calm - N/A   Clear
8:54 PM 55.9 °F - 51.3 °F 84% 29.94 in 10.0 mi Calm Calm - N/A   Clear
9:14 PM 55.8 °F - 51.3 °F 85% 29.95 in 10.0 mi ENE 5.8 mph - N/A   Clear
9:34 PM 54.0 °F - 49.6 °F 85% 29.96 in 10.0 mi NE 3.5 mph - N/A   Clear
9:54 PM 52.3 °F - 48.4 °F 86% 29.96 in 10.0 mi Calm Calm - N/A   Clear
10:14 PM 52.0 °F - 48.7 °F 89% 29.96 in 10.0 mi Calm Calm - N/A   Clear
10:34 PM 51.4 °F - 48.6 °F 90% 29.97 in 10.0 mi Calm Calm - N/A   Clear
10:54 PM 48.7 °F - 45.7 °F 89% 29.97 in 0.5 mi Calm Calm - N/A Fog Fog
11:15 PM 47.5 °F - 45.0 °F 91% 29.97 in 0.2 mi Calm Calm - N/A Fog Fog
11:34 PM 44.1 °F - 41.4 °F 90% 29.97 in 0.2 mi Calm Calm - N/A Fog Fog
11:54 PM 45.3 °F - 42.8 °F 91% 29.97 in 0.5 mi Calm Calm - N/A Fog Fog